Sant Just Desvern, Spain
Current Conditions -  °F | °C
As of 7:30 AM on Saturday 20 Dec 2014 (Local Time) from LEBL Reporting Station
Broken Clouds Broken Clouds  
Wind Chill: 52°   Ceiling: 3000
Heat Index: 52°   Visibility: 6mi
Dew Point: 45°   Wind: 17mph
Humidity: 76%   Direction: 330°NNW
Pressure: 30.39"   Gusts: NA
Location:  41.39°N, 2.08°E
Report Text: LEBL 200630Z 33015KT 9999 BKN030 11/07 Q1029 NOSIG
Loading
Personal Weather Stations






























Interactive Weather Map New forecast layout! Learn more

10-Day Weather Forecast

Advertisements
Track Severe Weather on mobile